,,,PA_Meas_PMT16A,,PR_Meas_QMR101_102,,RH_Meas_QMH101,,SR_Meas_QMS101,,TA_Meas_QMH101,,GenWind,,GenWind,
date,time,status,PA,status,PR,status,RH,status,SR,status,TA,status,DirAvg,status,SpdAvg,
2011-11-14, 00:00:05,VALID,1001.96,VALID,0,VALID,77.1814,VALID,0,VALID,26.2719,VALID,357,VALID,1.68164,
2011-11-14, 00:01:05,VALID,1001.96,VALID,0,VALID,77.2958,VALID,0,VALID,26.2933,VALID,348,VALID,1.27539,
2011-11-14, 00:02:05,VALID,1001.96,VALID,0,VALID,77.2806,VALID,0,VALID,26.2933,VALID,339,VALID,1.41523,
2011-11-14, 00:03:05,VALID,1001.97,VALID,0,VALID,77.5399,VALID,0,VALID,26.2524,VALID,336,VALID,0.961328,
2011-11-14, 00:04:05,VALID,1001.95,VALID,0,VALID,77.7841,VALID,0,VALID,26.2329,VALID,356,VALID,1.44531,
2011-11-14, 00:05:05,VALID,1001.94,VALID,0,VALID,77.8985,VALID,0,VALID,26.2134,VALID,353,VALID,1.35234,
2011-11-14, 00:06:05,VALID,1001.93,VALID,0,VALID,77.9214,VALID,0,VALID,26.194,VALID,340,VALID,1.63359,
2011-11-14, 00:07:05,VALID,1001.92,VALID,0,VALID,78.1121,VALID,0,VALID,26.2134,VALID,2,VALID,0.947266,
2011-11-14, 00:08:05,VALID,1001.93,VALID,0,VALID,78.0968,VALID,0,VALID,26.2349,VALID,338,VALID,1.25859,
2011-11-14, 00:09:05,VALID,1001.93,VALID,0,VALID,78.2494,VALID,0,VALID,26.2134,VALID,359,VALID,1.00664,
2011-11-14, 00:10:05,VALID,1001.92,VALID,0,VALID,78.3639,VALID,0,VALID,26.1745,VALID,339,VALID,1.04023,
2011-11-14, 00:11:05,VALID,1001.88,VALID,0,VALID,78.5088,VALID,0,VALID,26.194,VALID,348,VALID,0.993359,
2011-11-14, 00:12:05,VALID,1001.9,VALID,0,VALID,78.2723,VALID,0,VALID,26.2134,VALID,338,VALID,1.07266,
2011-11-14, 00:13:05,VALID,1001.89,VALID,0,VALID,78.4478,VALID,0,VALID,26.2329,VALID,341,VALID,0.719141,
2011-11-14, 00:14:05,VALID,1001.88,VALID,0,VALID,78.5698,VALID,0,VALID,26.1959,VALID,331,VALID,0.617969,
2011-11-14, 00:15:05,VALID,1001.85,VALID,0,VALID,78.5546,VALID,0,VALID,26.1745,VALID,344,VALID,1.01602,
2011-11-14, 00:16:05,VALID,1001.84,VALID,0,VALID,78.5698,VALID,0,VALID,26.1745,VALID,350,VALID,0.998828,
2011-11-14, 00:17:05,VALID,1001.83,VALID,0,VALID,78.7987,VALID,0,VALID,26.155,VALID,346,VALID,0.691016,
2011-11-14, 00:18:05,VALID,1001.8,VALID,0,VALID,78.4401,VALID,0,VALID,26.2154,VALID,339,VALID,1.32383,
2011-11-14, 00:19:05,VALID,1001.77,VALID,0,VALID,78.4859,VALID,0,VALID,26.2154,VALID,345,VALID,1.2125,
2011-11-14, 00:20:05,VALID,1001.74,VALID,0,VALID,78.2723,VALID,0,VALID,26.2544,VALID,351,VALID,1.47344,
2011-11-14, 00:21:05,VALID,1001.69,VALID,0,VALID,78.1503,VALID,0,VALID,26.2329,VALID,341,VALID,1.17227,
2011-11-14, 00:22:05,VALID,1001.66,VALID,0,VALID,78.2876,VALID,0,VALID,26.2719,VALID,354,VALID,0.985156,
2011-11-14, 00:23:05,VALID,1001.64,VALID,0,VALID,78.2418,VALID,0,VALID,26.2739,VALID,338,VALID,0.997266,
2011-11-14, 00:24:05,VALID,1001.61,VALID,0,VALID,78.2647,VALID,0,VALID,26.2719,VALID,357,VALID,1.18164,
2011-11-14, 00:25:05,VALID,1001.59,VALID,0,VALID,78.2647,VALID,0,VALID,26.2524,VALID,344,VALID,1.2125,
2011-11-14, 00:26:05,VALID,1001.6,VALID,0,VALID,78.4859,VALID,0,VALID,26.2329,VALID,336,VALID,0.509375,
2011-11-14, 00:27:05,VALID,1001.6,VALID,0,VALID,78.6309,VALID,0,VALID,26.2349,VALID,348,VALID,1.13672,
2011-11-14, 00:28:05,VALID,1001.62,VALID,0,VALID,78.5241,VALID,0,VALID,26.194,VALID,351,VALID,1.4293,
2011-11-14, 00:29:05,VALID,1001.59,VALID,0,VALID,78.6995,VALID,0,VALID,26.2134,VALID,348,VALID,0.753125,
2011-11-14, 00:30:05,VALID,1001.59,VALID,0,VALID,78.7453,VALID,0,VALID,26.2134,VALID,325,VALID,0.660937,
2011-11-14, 00:31:05,VALID,1001.56,VALID,0,VALID,78.8903,VALID,0.0815089,VALID,26.1745,VALID,335,VALID,1.0918,
2011-11-14, 00:32:05,VALID,1001.55,VALID,0,VALID,79.0047,VALID,0,VALID,26.1335,VALID,351,VALID,1.29141,
2011-11-14, 00:33:05,VALID,1001.58,VALID,0,VALID,79.0886,VALID,0.0815089,VALID,26.1335,VALID,344,VALID,1.33203,
2011-11-14, 00:34:05,VALID,1001.59,VALID,0,VALID,79.0428,VALID,0.0815089,VALID,26.1335,VALID,350,VALID,1.38594,
2011-11-14, 00:35:05,VALID,1001.56,VALID,0,VALID,79.0047,VALID,0.0815089,VALID,26.155,VALID,341,VALID,1.27695,
2011-11-14, 00:36:05,VALID,1001.56,VALID,0,VALID,79.081,VALID,0.0815089,VALID,26.1355,VALID,348,VALID,1.42578,
2011-11-14, 00:37:05,VALID,1001.6,VALID,0,VALID,79.203,VALID,0.0815089,VALID,26.1141,VALID,347,VALID,1.17148,
2011-11-14, 00:38:05,VALID,1001.59,VALID,0,VALID,79.1954,VALID,0.0815089,VALID,26.0966,VALID,352,VALID,1.34297,
2011-11-14, 00:39:05,VALID,1001.62,VALID,0,VALID,79.287,VALID,0,VALID,26.0751,VALID,350,VALID,1.03789,
2011-11-14, 00:40:05,VALID,1001.62,VALID,0,VALID,79.4166,VALID,0.0815089,VALID,26.0556,VALID,343,VALID,1.00234,
2011-11-14, 00:41:05,VALID,1001.59,VALID,0,VALID,79.4624,VALID,0.0815089,VALID,26.0362,VALID,341,VALID,0.854297,
2011-11-14, 00:42:05,VALID,1001.61,VALID,0,VALID,79.5235,VALID,0.0815089,VALID,26.0362,VALID,349,VALID,1.13672,
2011-11-14, 00:43:05,VALID,1001.59,VALID,0,VALID,79.4624,VALID,0.0815089,VALID,26.0167,VALID,349,VALID,2.05469,
2011-11-14, 00:44:05,VALID,1001.6,VALID,0,VALID,79.3632,VALID,0.0815089,VALID,26.0362,VALID,350,VALID,2.20195,
2011-11-14, 00:45:05,VALID,1001.57,VALID,0,VALID,79.3251,VALID,0.0815089,VALID,26.0576,VALID,345,VALID,1.25273,
2011-11-14, 00:46:05,VALID,1001.57,VALID,0,VALID,79.409,VALID,0.0815089,VALID,26.0576,VALID,357,VALID,1.175,
2011-11-14, 00:47:05,VALID,1001.52,VALID,0,VALID,79.5235,VALID,0.0815089,VALID,26.0167,VALID,360,VALID,1.05742,
2011-11-14, 00:48:05,VALID,1001.52,VALID,0,VALID,79.6531,VALID,0,VALID,26.0187,VALID,359,VALID,0.510547,
2011-11-14, 00:49:05,VALID,1001.53,VALID,0,VALID,79.8591,VALID,0,VALID,26.0187,VALID,356,VALID,0.679688,
2011-11-14, 00:50:05,VALID,1001.49,VALID,0,VALID,79.7142,VALID,0.0815089,VALID,25.9797,VALID,343,VALID,1.40234,
2011-11-14, 00:51:05,VALID,1001.45,VALID,0,VALID,79.8591,VALID,0.0815089,VALID,25.9388,VALID,350,VALID,0.926953,
2011-11-14, 00:52:05,VALID,1001.47,VALID,0,VALID,79.9888,VALID,0,VALID,25.9193,VALID,346,VALID,1.01523,
2011-11-14, 00:53:05,VALID,1001.44,VALID,0,VALID,80.0727,VALID,0.0815089,VALID,25.8998,VALID,319,VALID,0.572656,
2011-11-14, 00:54:05,VALID,1001.43,VALID,0,VALID,80.3703,VALID,0.0815089,VALID,25.9213,VALID,321,VALID,0.303906,
2011-11-14, 00:55:05,VALID,1001.4,VALID,0,VALID,80.4313,VALID,0.0815089,VALID,25.8609,VALID,341,VALID,0.653125,
2011-11-14, 00:56:05,VALID,1001.39,VALID,0,VALID,80.5381,VALID,0.0815089,VALID,25.8219,VALID,310,VALID,0.284766,
2011-11-14, 00:57:05,VALID,1001.38,VALID,0,VALID,80.683,VALID,0.0815089,VALID,25.783,VALID,338,VALID,0.807813,
2011-11-14, 00:58:05,VALID,1001.37,VALID,0,VALID,80.683,VALID,0.0815089,VALID,25.7635,VALID,289,VALID,0.576953,
2011-11-14, 00:59:05,VALID,1001.4,VALID,0,VALID,80.7746,VALID,0.0815089,VALID,25.785,VALID,341,VALID,0.950391,
2011-11-14, 01:00:05,VALID,1001.39,VALID,0,VALID,80.9348,VALID,0.0815089,VALID,25.7655,VALID,266,VALID,0.209766,
2011-11-14, 01:01:05,VALID,1001.39,VALID,0,VALID,80.9119,VALID,0,VALID,25.748,VALID,273,VALID,0.398828,
2011-11-14, 01:02:05,VALID,1001.39,VALID,0,VALID,81.1103,VALID,0,VALID,25.7071,VALID,273,VALID,0.216406,
2011-11-14, 01:03:05,VALID,1001.35,VALID,0,VALID,81.2552,VALID,0,VALID,25.709,VALID,273,VALID,0.125781,
2011-11-14, 01:04:05,VALID,1001.34,VALID,0,VALID,81.3315,VALID,0,VALID,25.67,VALID,330,VALID,0.392578,
2011-11-14, 01:05:05,VALID,1001.3,VALID,0,VALID,81.5756,VALID,0,VALID,25.6097,VALID,331,VALID,0.0777344,
2011-11-14, 01:06:05,VALID,1001.28,VALID,0,VALID,81.6748,VALID,0,VALID,25.5707,VALID,333,VALID,0.175,
2011-11-14, 01:07:05,VALID,1001.26,VALID,0,VALID,81.7053,VALID,0,VALID,25.5707,VALID,343,VALID,0.460156,
2011-11-14, 01:08:05,VALID,1001.21,VALID,0,VALID,81.8731,VALID,0,VALID,25.5513,VALID,343,VALID,0.182812,
2011-11-14, 01:09:05,VALID,1001.22,VALID,0,VALID,82.0562,VALID,0,VALID,25.5513,VALID,343,VALID,0.112891,
2011-11-14, 01:10:05,VALID,1001.22,VALID,0,VALID,82.0257,VALID,0,VALID,25.5318,VALID,343,VALID,0.05625,
2011-11-14, 01:11:05,VALID,1001.21,VALID,0,VALID,82.0715,VALID,0,VALID,25.4928,VALID,343,VALID,0.483984,
2011-11-14, 01:12:05,VALID,1001.22,VALID,0,VALID,82.0181,VALID,0,VALID,25.4928,VALID,346,VALID,0.366797,
2011-11-14, 01:13:05,VALID,1001.23,VALID,0,VALID,81.9189,VALID,0,VALID,25.5123,VALID,307,VALID,0.267969,
2011-11-14, 01:14:05,VALID,1001.19,VALID,0,VALID,82.041,VALID,0.0815089,VALID,25.4928,VALID,306,VALID,0.272656,
2011-11-14, 01:15:05,VALID,1001.15,VALID,0,VALID,82.1325,VALID,0,VALID,25.4928,VALID,307,VALID,0.108984,
2011-11-14, 01:16:05,VALID,1001.15,VALID,0,VALID,82.2622,VALID,0,VALID,25.4928,VALID,296,VALID,0.266406,
2011-11-14, 01:17:05,VALID,1001.13,VALID,0,VALID,82.4987,VALID,0,VALID,25.4734,VALID,296,VALID,0,
2011-11-14, 01:18:05,VALID,1001.11,VALID,0,VALID,82.575,VALID,0,VALID,25.4753,VALID,288,VALID,0.00585938,
2011-11-14, 01:19:05,VALID,1001.14,VALID,0,VALID,82.5216,VALID,0,VALID,25.4363,VALID,288,VALID,0,
2011-11-14, 01:20:05,VALID,1001.16,VALID,0,VALID,82.5445,VALID,0,VALID,25.3955,VALID,288,VALID,0,
2011-11-14, 01:21:05,VALID,1001.16,VALID,0,VALID,82.7505,VALID,0,VALID,25.3565,VALID,288,VALID,0.0902344,
2011-11-14, 01:22:05,VALID,1001.13,VALID,0,VALID,82.8802,VALID,0,VALID,25.3584,VALID,288,VALID,0,
2011-11-14, 01:23:05,VALID,1001.11,VALID,0,VALID,83.1777,VALID,0,VALID,25.339,VALID,302,VALID,0.366016,
2011-11-14, 01:24:05,VALID,1001.09,VALID,0,VALID,82.9946,VALID,0,VALID,25.339,VALID,327,VALID,0.313281,
2011-11-14, 01:25:05,VALID,1001.1,VALID,0,VALID,82.8649,VALID,0,VALID,25.337,VALID,327,VALID,0.0964844,
2011-11-14, 01:26:05,VALID,1001.11,VALID,0,VALID,83.0098,VALID,0,VALID,25.337,VALID,327,VALID,0.0890625,
2011-11-14, 01:27:05,VALID,1001.06,VALID,0,VALID,82.9107,VALID,0,VALID,25.3565,VALID,327,VALID,0.071875,
2011-11-14, 01:28:05,VALID,1001.08,VALID,0,VALID,83.5515,VALID,0,VALID,25.3176,VALID,327,VALID,0.422656,
2011-11-14, 01:29:05,VALID,1001.04,VALID,0,VALID,84.1694,VALID,0,VALID,25.1813,VALID,327,VALID,0.365234,
2011-11-14, 01:30:05,VALID,1001.06,VALID,0,VALID,84.9018,VALID,0,VALID,25.0644,VALID,332,VALID,0.352344,
2011-11-14, 01:31:05,VALID,1001.07,VALID,0,VALID,85.4511,VALID,0,VALID,24.969,VALID,332,VALID,0.460547,
2011-11-14, 01:32:05,VALID,1001.09,VALID,0,VALID,86.1224,VALID,0,VALID,24.8308,VALID,332,VALID,0.358984,
2011-11-14, 01:33:05,VALID,1001.12,VALID,0,VALID,86.5878,VALID,0,VALID,24.7335,VALID,332,VALID,0.349219,
2011-11-14, 01:34:05,VALID,1001.12,VALID,0,VALID,87.1218,VALID,0,VALID,24.6361,VALID,332,VALID,0.427344,
2011-11-14, 01:35:05,VALID,1001.1,VALID,0,VALID,87.6177,VALID,0.0815089,VALID,24.5582,VALID,332,VALID,0.360938,
2011-11-14, 01:36:05,VALID,1001.08,VALID,0,VALID,88.1288,VALID,0,VALID,24.4396,VALID,332,VALID,0.415234,
2011-11-14, 01:37:05,VALID,1001.07,VALID,0,VALID,88.5866,VALID,0,VALID,24.3617,VALID,332,VALID,0.433203,
2011-11-14, 01:38:05,VALID,1001.1,VALID,0,VALID,88.9375,VALID,0,VALID,24.3246,VALID,333,VALID,0.468359,
2011-11-14, 01:39:05,VALID,1001.08,VALID,0,VALID,89.2808,VALID,0,VALID,24.2468,VALID,335,VALID,0.391016,
2011-11-14, 01:40:05,VALID,1001.09,VALID,0,VALID,89.4791,VALID,0.0815089,VALID,24.2273,VALID,335,VALID,0.449609,
2011-11-14, 01:41:05,VALID,1001.11,VALID,0,VALID,89.4944,VALID,0,VALID,24.2078,VALID,335,VALID,0.246094,
2011-11-14, 01:42:05,VALID,1001.13,VALID,0,VALID,89.8301,VALID,0,VALID,24.1902,VALID,335,VALID,0.516797,
2011-11-14, 01:43:05,VALID,1001.11,VALID,0,VALID,90.1429,VALID,0,VALID,24.1494,VALID,351,VALID,0.707422,
2011-11-14, 01:44:05,VALID,1001.1,VALID,0,VALID,90.3183,VALID,0.0815089,VALID,24.1105,VALID,356,VALID,0.746094,
2011-11-14, 01:45:05,VALID,1001.08,VALID,0,VALID,90.4251,VALID,0,VALID,24.0697,VALID,359,VALID,0.622266,
2011-11-14, 01:46:05,VALID,1001.08,VALID,0,VALID,90.6387,VALID,0.0815089,VALID,24.091,VALID,9,VALID,0.683203,
2011-11-14, 01:47:05,VALID,1001.11,VALID,0,VALID,90.5624,VALID,0,VALID,24.1105,VALID,10,VALID,0.547266,
2011-11-14, 01:48:05,VALID,1001.11,VALID,0,VALID,90.5548,VALID,0.0815089,VALID,24.091,VALID,10,VALID,0.448828,
2011-11-14, 01:49:05,VALID,1001.14,VALID,0,VALID,90.6006,VALID,0,VALID,24.091,VALID,10,VALID,0.539063,
2011-11-14, 01:50:05,VALID,1001.11,VALID,0,VALID,90.6998,VALID,0.0815089,VALID,24.0697,VALID,10,VALID,0.370703,
2011-11-14, 01:51:05,VALID,1001.09,VALID,0,VALID,90.6006,VALID,0,VALID,24.091,VALID,10,VALID,0.413281,
2011-11-14, 01:52:05,VALID,1001.06,VALID,0,VALID,90.5472,VALID,0,VALID,24.0716,VALID,10,VALID,0.357422,
2011-11-14, 01:53:05,VALID,1001.07,VALID,0,VALID,90.7074,VALID,0,VALID,24.0716,VALID,10,VALID,0.358984,
2011-11-14, 01:54:05,VALID,1001.06,VALID,0,VALID,90.7989,VALID,0,VALID,24.0716,VALID,10,VALID,0.283203,
2011-11-14, 01:55:05,VALID,1001.07,VALID,0,VALID,90.8218,VALID,0,VALID,24.0308,VALID,10,VALID,0.461328,
2011-11-14, 01:56:05,VALID,1001.05,VALID,0,VALID,90.8829,VALID,0,VALID,24.0132,VALID,10,VALID,0.352734,
2011-11-14, 01:57:05,VALID,1001.05,VALID,0,VALID,90.982,VALID,0.0815089,VALID,24.0132,VALID,10,VALID,0.482422,
2011-11-14, 01:58:05,VALID,1001.03,VALID,0,VALID,91.0888,VALID,0.0815089,VALID,23.9742,VALID,10,VALID,0.362891,
2011-11-14, 01:59:05,VALID,1001.03,VALID,0,VALID,91.1651,VALID,0.0815089,VALID,23.9742,VALID,10,VALID,0.353906,
2011-11-14, 02:00:04,VALID,1001.01,VALID,0,VALID,91.3482,VALID,0,VALID,23.9742,VALID,10,VALID,0.280859,
2011-11-14, 02:01:04,VALID,1001.01,VALID,0,VALID,91.3482,VALID,0,VALID,23.9742,VALID,10,VALID,0.171484,
2011-11-14, 02:02:04,VALID,1001.02,VALID,0,VALID,91.3406,VALID,0,VALID,23.9742,VALID,10,VALID,0,
2011-11-14, 02:03:04,VALID,1001.03,VALID,0,VALID,91.2948,VALID,0,VALID,23.9742,VALID,10,VALID,0.00429688,
2011-11-14, 02:04:04,VALID,1001.03,VALID,0,VALID,91.3177,VALID,0,VALID,23.9566,VALID,10,VALID,0.211328,
2011-11-14, 02:05:04,VALID,1001.05,VALID,0,VALID,91.3787,VALID,0,VALID,23.9159,VALID,10,VALID,0.479297,
2011-11-14, 02:06:04,VALID,1001.02,VALID,0,VALID,91.4779,VALID,0,VALID,23.9177,VALID,10,VALID,0.328516,
2011-11-14, 02:07:04,VALID,1001.04,VALID,0,VALID,91.5389,VALID,0,VALID,23.9177,VALID,10,VALID,0.192188,
2011-11-14, 02:08:04,VALID,1001.05,VALID,0,VALID,91.6457,VALID,0,VALID,23.8769,VALID,10,VALID,0.446094,
2011-11-14, 02:09:04,VALID,1001.04,VALID,0,VALID,91.6457,VALID,0,VALID,23.8575,VALID,10,VALID,0.633594,
2011-11-14, 02:10:04,VALID,1001.05,VALID,0,VALID,91.5923,VALID,0,VALID,23.8593,VALID,10,VALID,0.485156,
2011-11-14, 02:11:04,VALID,1001.06,VALID,0,VALID,91.7449,VALID,0,VALID,23.8398,VALID,10,VALID,0.333594,
2011-11-14, 02:12:04,VALID,1001.05,VALID,0,VALID,91.7907,VALID,0,VALID,23.8185,VALID,10,VALID,0.485156,
2011-11-14, 02:13:04,VALID,1001.04,VALID,0,VALID,91.7678,VALID,0,VALID,23.7796,VALID,10,VALID,0.451562,
2011-11-14, 02:14:04,VALID,1001.03,VALID,0,VALID,91.8899,VALID,0,VALID,23.7601,VALID,10,VALID,0.277344,
2011-11-14, 02:15:04,VALID,1001,VALID,0,VALID,92.0577,VALID,0,VALID,23.7601,VALID,10,VALID,0.407031,
2011-11-14, 02:16:04,VALID,1000.96,VALID,0,VALID,92.134,VALID,0,VALID,23.7583,VALID,10,VALID,0.378125,
2011-11-14, 02:17:04,VALID,1000.95,VALID,0,VALID,92.2027,VALID,0,VALID,23.7796,VALID,10,VALID,0.471484,
2011-11-14, 02:18:04,VALID,1000.96,VALID,0,VALID,92.2255,VALID,0,VALID,23.7601,VALID,10,VALID,0.424609,
2011-11-14, 02:19:04,VALID,1000.96,VALID,0,VALID,92.3247,VALID,0,VALID,23.7601,VALID,10,VALID,0.470703,
2011-11-14, 02:20:04,VALID,1000.94,VALID,0,VALID,92.3781,VALID,0.0815089,VALID,23.7601,VALID,10,VALID,0.505469,
2011-11-14, 02:21:04,VALID,1000.94,VALID,0,VALID,92.3171,VALID,0.0815089,VALID,23.7389,VALID,10,VALID,0.474609,
2011-11-14, 02:22:04,VALID,1000.95,VALID,0,VALID,92.3247,VALID,0,VALID,23.7407,VALID,10,VALID,0.568359,
2011-11-14, 02:23:04,VALID,1000.93,VALID,0,VALID,92.4163,VALID,0,VALID,23.7212,VALID,10,VALID,0.471094,
2011-11-14, 02:24:04,VALID,1000.92,VALID,0,VALID,92.5078,VALID,0,VALID,23.7,VALID,10,VALID,0.426172,
2011-11-14, 02:25:04,VALID,1000.88,VALID,0,VALID,92.546,VALID,0,VALID,23.6805,VALID,10,VALID,0.361719,
2011-11-14, 02:26:04,VALID,1000.88,VALID,0,VALID,92.6451,VALID,0.0815089,VALID,23.661,VALID,10,VALID,0.0957031,
2011-11-14, 02:27:04,VALID,1000.84,VALID,0,VALID,92.7672,VALID,0,VALID,23.6823,VALID,10,VALID,0,
2011-11-14, 02:28:04,VALID,1000.79,VALID,0,VALID,92.9961,VALID,0,VALID,23.7017,VALID,10,VALID,0.2125,
2011-11-14, 02:29:04,VALID,1000.83,VALID,0,VALID,93.0876,VALID,0,VALID,23.7,VALID,10,VALID,0.28125,
2011-11-14, 02:30:04,VALID,1000.79,VALID,0,VALID,93.0189,VALID,0,VALID,23.7407,VALID,10,VALID,0.279687,
2011-11-14, 02:31:04,VALID,1000.78,VALID,0,VALID,93.0342,VALID,0,VALID,23.7407,VALID,10,VALID,0.369141,
2011-11-14, 02:32:04,VALID,1000.78,VALID,0,VALID,92.874,VALID,0,VALID,23.7389,VALID,10,VALID,0.209375,
2011-11-14, 02:33:04,VALID,1000.73,VALID,0,VALID,92.813,VALID,0.0815089,VALID,23.7601,VALID,10,VALID,0.30625,
2011-11-14, 02:34:04,VALID,1000.74,VALID,0,VALID,92.6833,VALID,0,VALID,23.7796,VALID,10,VALID,0.329297,
2011-11-14, 02:35:04,VALID,1000.72,VALID,0,VALID,92.607,VALID,0,VALID,23.7407,VALID,10,VALID,0.217969,
2011-11-14, 02:36:04,VALID,1000.73,VALID,0,VALID,92.6985,VALID,0,VALID,23.7601,VALID,10,VALID,0.253516,
2011-11-14, 02:37:04,VALID,1000.73,VALID,0,VALID,92.7824,VALID,0,VALID,23.7583,VALID,10,VALID,0.508203,
2011-11-14, 02:38:04,VALID,1000.7,VALID,0,VALID,92.4773,VALID,0,VALID,23.7583,VALID,10,VALID,0.476563,
2011-11-14, 02:39:04,VALID,1000.71,VALID,0,VALID,92.6909,VALID,0.0815089,VALID,23.7583,VALID,10,VALID,0.382031,
2011-11-14, 02:40:04,VALID,1000.71,VALID,0,VALID,92.7596,VALID,0.0815089,VALID,23.7973,VALID,10,VALID,0.424219,
2011-11-14, 02:41:04,VALID,1000.69,VALID,0,VALID,92.4849,VALID,0.0815089,VALID,23.8185,VALID,10,VALID,0.400781,
2011-11-14, 02:42:04,VALID,1000.75,VALID,0,VALID,92.5383,VALID,0,VALID,23.7991,VALID,10,VALID,0.442969,
2011-11-14, 02:43:04,VALID,1000.73,VALID,0,VALID,92.5993,VALID,0,VALID,23.776,VALID,10,VALID,0.398828,
2011-11-14, 02:44:04,VALID,1000.75,VALID,0,VALID,92.7367,VALID,0.0815089,VALID,23.8167,VALID,10,VALID,0.315234,
2011-11-14, 02:45:04,VALID,1000.74,VALID,0,VALID,92.4391,VALID,0.0815089,VALID,23.838,VALID,10,VALID,0.335156,
2011-11-14, 02:46:04,VALID,1000.71,VALID,0,VALID,92.3323,VALID,0,VALID,23.7973,VALID,10,VALID,0.548437,
2011-11-14, 02:47:04,VALID,1000.71,VALID,0,VALID,92.2942,VALID,0,VALID,23.7796,VALID,10,VALID,0.565625,
2011-11-14, 02:48:04,VALID,1000.67,VALID,0,VALID,92.3857,VALID,0,VALID,23.7407,VALID,10,VALID,0.547656,
2011-11-14, 02:49:04,VALID,1000.68,VALID,0,VALID,92.6146,VALID,0,VALID,23.7194,VALID,10,VALID,0.364062,
2011-11-14, 02:50:04,VALID,1000.69,VALID,0,VALID,92.7824,VALID,0,VALID,23.7194,VALID,10,VALID,0.0046875,
2011-11-14, 02:51:04,VALID,1000.66,VALID,0,VALID,92.6528,VALID,0.0815089,VALID,23.7407,VALID,10,VALID,0,
2011-11-14, 02:52:04,VALID,1000.67,VALID,0,VALID,93.3317,VALID,0,VALID,23.7583,VALID,342,VALID,0.55,
2011-11-14, 02:53:04,VALID,1000.65,VALID,0,VALID,92.9121,VALID,0.0815089,VALID,23.7991,VALID,342,VALID,0.328906,
2011-11-14, 02:54:04,VALID,1000.65,VALID,0,VALID,92.874,VALID,0,VALID,23.838,VALID,342,VALID,0.296875,
2011-11-14, 02:55:04,VALID,1000.66,VALID,0,VALID,92.7367,VALID,0,VALID,23.8167,VALID,342,VALID,0.475,
2011-11-14, 02:56:04,VALID,1000.63,VALID,0,VALID,92.6756,VALID,0.0815089,VALID,23.8362,VALID,342,VALID,0.332812,
2011-11-14, 02:57:04,VALID,1000.68,VALID,0,VALID,92.6604,VALID,0,VALID,23.8556,VALID,342,VALID,0.332031,
2011-11-14, 02:58:04,VALID,1000.67,VALID,0,VALID,92.5765,VALID,0.0815089,VALID,23.8751,VALID,342,VALID,0.216406,
2011-11-14, 02:59:04,VALID,1000.69,VALID,0,VALID,92.4697,VALID,0,VALID,23.8751,VALID,342,VALID,0.2,
2011-11-14, 03:00:04,VALID,1000.67,VALID,0,VALID,92.5002,VALID,0,VALID,23.8964,VALID,342,VALID,0.405078,
2011-11-14, 03:01:04,VALID,1000.68,VALID,0,VALID,92.5917,VALID,0.0815089,VALID,23.8946,VALID,342,VALID,0.0898438,
2011-11-14, 03:02:04,VALID,1000.68,VALID,0,VALID,92.607,VALID,0.0815089,VALID,23.914,VALID,342,VALID,0.0265625,
2011-11-14, 03:03:04,VALID,1000.68,VALID,0,VALID,92.5612,VALID,0.0815089,VALID,23.9335,VALID,342,VALID,0.0238281,
2011-11-14, 03:04:04,VALID,1000.69,VALID,0,VALID,92.6299,VALID,0.0815089,VALID,23.9724,VALID,342,VALID,0.284375,
2011-11-14, 03:05:04,VALID,1000.67,VALID,0,VALID,92.7672,VALID,0.0815089,VALID,24.0308,VALID,348,VALID,0.371875,
2011-11-14, 03:06:04,VALID,1000.68,VALID,0,VALID,92.4391,VALID,0.0815089,VALID,24.1281,VALID,347,VALID,0.509375,
2011-11-14, 03:07:04,VALID,1000.69,VALID,0,VALID,91.9051,VALID,0.0815089,VALID,24.2273,VALID,345,VALID,0.723437,
2011-11-14, 03:08:04,VALID,1000.68,VALID,0,VALID,91.0965,VALID,0,VALID,24.2857,VALID,344,VALID,0.774219,
2011-11-14, 03:09:04,VALID,1000.69,VALID,0,VALID,91.0354,VALID,0.0815089,VALID,24.3228,VALID,344,VALID,0.535156,
2011-11-14, 03:10:04,VALID,1000.73,VALID,0,VALID,90.654,VALID,0.0815089,VALID,24.4201,VALID,360,VALID,0.49375,
2011-11-14, 03:11:04,VALID,1000.76,VALID,0,VALID,90.1123,VALID,0.0815089,VALID,24.498,VALID,352,VALID,0.697266,
2011-11-14, 03:12:04,VALID,1000.77,VALID,0,VALID,89.7767,VALID,0,VALID,24.5972,VALID,352,VALID,0.671875,
2011-11-14, 03:13:04,VALID,1000.76,VALID,0,VALID,89.38,VALID,0.0815089,VALID,24.6732,VALID,338,VALID,0.48125,
2011-11-14, 03:14:04,VALID,1000.73,VALID,0,VALID,89.0824,VALID,0,VALID,24.7705,VALID,344,VALID,0.875,
2011-11-14, 03:15:04,VALID,1000.74,VALID,0,VALID,88.556,VALID,0.0815089,VALID,24.8697,VALID,337,VALID,0.0398437,
2011-11-14, 03:16:04,VALID,1000.76,VALID,0,VALID,88.289,VALID,0,VALID,24.9087,VALID,328,VALID,0.523438,
2011-11-14, 03:17:04,VALID,1000.75,VALID,0,VALID,88.0449,VALID,0,VALID,24.9476,VALID,334,VALID,0.515234,
2011-11-14, 03:18:04,VALID,1000.72,VALID,0,VALID,87.8618,VALID,0,VALID,24.9671,VALID,339,VALID,0.696875,
2011-11-14, 03:19:04,VALID,1000.76,VALID,0,VALID,87.7016,VALID,0,VALID,25.006,VALID,341,VALID,0.620703,
2011-11-14, 03:20:04,VALID,1000.78,VALID,0,VALID,87.6253,VALID,0,VALID,25.0663,VALID,341,VALID,0.655078,
2011-11-14, 03:21:04,VALID,1000.77,VALID,0,VALID,87.4804,VALID,0,VALID,25.0858,VALID,342,VALID,0.539063,
2011-11-14, 03:22:04,VALID,1000.76,VALID,0,VALID,87.2896,VALID,0,VALID,25.0858,VALID,352,VALID,0.88125,
2011-11-14, 03:23:04,VALID,1000.79,VALID,0,VALID,87.0074,VALID,0,VALID,25.1248,VALID,344,VALID,0.732422,
2011-11-14, 03:24:04,VALID,1000.79,VALID,0,VALID,86.8701,VALID,0,VALID,25.1637,VALID,342,VALID,0.767187,
2011-11-14, 03:25:04,VALID,1000.78,VALID,0,VALID,86.8853,VALID,0,VALID,25.1229,VALID,341,VALID,0.628125,
2011-11-14, 03:26:04,VALID,1000.8,VALID,0,VALID,86.9616,VALID,0,VALID,25.1442,VALID,345,VALID,1.00977,
2011-11-14, 03:27:04,VALID,1000.83,VALID,0,VALID,87.0226,VALID,0,VALID,25.1034,VALID,348,VALID,0.706641,
2011-11-14, 03:28:04,VALID,1000.83,VALID,0,VALID,87.0532,VALID,0,VALID,25.0839,VALID,340,VALID,0.842969,
2011-11-14, 03:29:04,VALID,1000.87,VALID,0,VALID,86.9845,VALID,0,VALID,25.1229,VALID,341,VALID,0.505859,
2011-11-14, 03:30:04,VALID,1000.88,VALID,0,VALID,86.9998,VALID,0,VALID,25.1229,VALID,342,VALID,0.401953,
2011-11-14, 03:31:04,VALID,1000.89,VALID,0,VALID,87.0226,VALID,0.0815089,VALID,25.1229,VALID,352,VALID,0.800391,
2011-11-14, 03:32:04,VALID,1000.92,VALID,0,VALID,86.9158,VALID,0.0815089,VALID,25.1404,VALID,344,VALID,0.660937,
2011-11-14, 03:33:04,VALID,1000.9,VALID,0,VALID,86.8472,VALID,0,VALID,25.1404,VALID,294,VALID,0.384766,
2011-11-14, 03:34:04,VALID,1000.94,VALID,0,VALID,86.8319,VALID,0.0815089,VALID,25.2007,VALID,344,VALID,1.13281,
2011-11-14, 03:35:04,VALID,1000.95,VALID,0,VALID,86.7022,VALID,0,VALID,25.1988,VALID,355,VALID,1.32695,
2011-11-14, 03:36:04,VALID,1000.94,VALID,0,VALID,86.4352,VALID,0,VALID,25.2397,VALID,341,VALID,0.583984,
2011-11-14, 03:37:04,VALID,1000.94,VALID,0,VALID,86.3971,VALID,0.0815089,VALID,25.2378,VALID,337,VALID,0.425781,
2011-11-14, 03:38:04,VALID,1000.94,VALID,0,VALID,86.2979,VALID,0.0815089,VALID,25.2981,VALID,348,VALID,0.644922,
2011-11-14, 03:39:04,VALID,1000.95,VALID,0,VALID,86.1224,VALID,0.0815089,VALID,25.3176,VALID,348,VALID,0.689844,
2011-11-14, 03:40:04,VALID,1000.94,VALID,0,VALID,85.9165,VALID,0.0815089,VALID,25.3157,VALID,345,VALID,1.06562,